Home   Weather   The Valley   Past weeks

Flag for Anguilla Past Weather in The Valley, Anguilla — Yesterday and Last 2 Weeks

Now
75 °F

Passing clouds.


Feels Like: 75 °F
Forecast: 75 / 80 °F
Wind: 14 mph from Northeast

Location: Juliana Airport - Saint Maarten

Current Time: Jan 18, 2017 at 2:24:59 am

Latest Report: Jan 18, 2017 at 1:00 am


Visibility: N/A

Pressure: 30.04 "Hg

Humidity: 83%

Dew Point: 70 °F

Location of The ValleyLocation

Past Weather in The Valley — Graph

°F

The Valley Temperature Yesterday

Maximum temperature yesterday: 82 °F (at 11:00 am)
Minimum temperature yesterday: 75 °F (at 12:00 am)
Average temperature yesterday: 78 °F

High & Low Weather Summary for the Past Weeks

 TemperatureHumidityPressure
High82 °F (Jan 3, 11:00 am)100% (Jan 11, 5:00 am)30.12 "Hg (Jan 11, 5:00 am)
Low72 °F (Jan 11, 4:14 am)51% (Jan 9, 3:00 pm)29.92 "Hg (Jan 10, 2:00 pm)
Average78 °F74%30.02 "Hg
* Reported Jan 3 1:00 am — Jan 18 1:00 am, The Valley, Weather by CustomWeather, © 2017

Note: Actual official high and low records may vary slightly from our data, if they occured in-between our weather recording intervals... More about our weather records

Advertising

The Valley Weather History for the Previous 24 Hours

Scroll right to see more
 ConditionsComfort  
Time TempWeatherWind HumidityBarometerVisibility
1:00 am
Wed, Jan 18
75 °FPassing clouds.14 mph83%30.04 "HgN/A
12:00 am75 °FPassing clouds.10 mph83%30.07 "HgN/A
11:00 pm
Tue, Jan 17
77 °FPassing clouds.15 mph74%30.07 "HgN/A
10:00 pm77 °FPassing clouds.12 mph74%30.07 "HgN/A
9:00 pm77 °FPassing clouds.13 mph69%30.07 "HgN/A
8:00 pm77 °FPassing clouds.13 mph69%30.07 "HgN/A
7:00 pm77 °FPassing clouds.13 mph65%30.04 "HgN/A
6:00 pm79 °FPassing clouds.14 mph61%30.04 "HgN/A
5:00 pm81 °FPassing clouds.14 mph58%30.01 "HgN/A
4:00 pm81 °FPassing clouds.14 mph58%30.01 "HgN/A
3:00 pm81 °FPassing clouds.14 mph62%30.01 "HgN/A
2:00 pm81 °FScattered clouds.15 mph62%30.01 "HgN/A
1:00 pm82 °FScattered clouds.14 mph58%30.04 "HgN/A
12:00 pm82 °FPassing clouds.14 mph58%30.07 "HgN/A
11:00 am82 °FScattered clouds.17 mph58%30.07 "HgN/A
10:00 am81 °FPassing clouds.13 mph62%30.09 "HgN/A
9:00 am79 °FPassing clouds.15 mph65%30.07 "HgN/A
8:00 am79 °FPassing clouds.14 mph61%30.07 "HgN/A
7:00 am77 °FPassing clouds.16 mph65%30.04 "HgN/A
6:00 am75 °FScattered showers. Passing clouds.16 mph78%30.04 "HgN/A
5:00 am77 °FScattered showers. Passing clouds.15 mph74%30.01 "Hg6 mi
4:00 am77 °FPassing clouds.14 mph69%30.01 "HgN/A
3:00 am77 °FPassing clouds.13 mph69%30.01 "HgN/A
2:00 am77 °FPassing clouds.16 mph69%30.04 "HgN/A
Weather by CustomWeather, © 2017

See weather overviewHow to use our weather pages